Regional Weather Roundup
Issued by NWS

Home | Current Version | Previous Version | Graphics & Text | Print | Product List | Glossary On
Versions: 1 2 3 4 5 6 7 8 9 10 11 12 13 14 15 16 17 18 19 20 21 22 23 24 25 26 27 28 29 30 31 32 33 34 35 36 37 38 39 40 41 42 43 44 45 46 47 48 49 50
000
ASUS43 KBIS 231031
RWRND
NORTH DAKOTA REGIONAL WEATHER ROUNDUP
NATIONAL WEATHER SERVICE EASTERN NORTH DAKOTA/GRAND FORKS ND
500 AM CDT FRI JUN 23 2017

  NOTE: "FAIR" INDICATES FEW OR NO CLOUDS BELOW 12,000 FEET WITH NO
  SIGNIFICANT WEATHER AND/OR OBSTRUCTIONS TO VISIBILITY.

NDZ001>003-009>011-017-231100-
...NORTHWEST NORTH DAKOTA...

CITY           SKY/WX    TMP DP  RH WIND       PRES   REMARKS
WILLISTON      FAIR      47  42  83 W12       30.08R
MINOT          CLOUDY    54  45  71 NW22G30   29.94R
MINOT AFB      CLOUDY    54  45  71 NW21      29.94R
$$

NDZ018>021-031>035-040>046-231100-
...SOUTHWEST NORTH DAKOTA...

CITY           SKY/WX    TMP DP  RH WIND       PRES   REMARKS
BISMARCK       CLOUDY    57  47  69 NW14G25   29.97R
DICKINSON      CLOUDY    50  44  80 NW22      30.05S
GARRISON         N/A     50  44  80 NW22G30   29.96R
HETTINGER      CLOUDY    52  44  74 NW21      30.10R
$$

NDZ004>008-012>016-024-026-027-054-231100-
...NORTHEAST NORTH DAKOTA...

CITY           SKY/WX    TMP DP  RH WIND       PRES   REMARKS
GRAND FORKS    FAIR      59  54  83 NW16G23   29.73R
GRAND FORKS AF FAIR      59  53  81 NW14      29.74R
DEVILS LAKE    CLOUDY    57  50  77 NW25G32   29.81R
$$

NDZ022-023-025-028>030-036>039-047>053-231100-
...SOUTHEAST NORTH DAKOTA...

CITY           SKY/WX    TMP DP  RH WIND       PRES   REMARKS
JAMESTOWN      CLOUDY    58  50  75 NW28G36   29.84R
FARGO          FAIR      58  52  80 W12       29.75R
WAHPETON       FAIR      52  46  82 W10       29.78S
$$




USA.gov is the U.S. government's official web portal to all federal, state and local government web resources and services.